Total_Precipitation_Accumulation
0.72 0.74 0.67 0.71 0.67 0.66 0.67 0.66 0.52 0.48 0.46 0.36 0.34 0.34 0.35 0.29 0.30 0.28 0.31 0.50 0.79 1.00 0.94 0.81 0.68 0.52 0.47 0.47 0.44 0.44 0.47 0.44 0.46 0.49 0.47 0.41 0.42 0.41 0.33 0.31 0.37 0.36 0.32
0.62 0.72 0.71 0.75 0.66 0.68 0.75 0.68 0.60 0.58 0.53 0.42 0.34 0.36 0.35 0.29 0.27 0.30 0.35 0.47 0.68 1.02 1.22 1.12 0.99 0.81 0.60 0.49 0.46 0.48 0.45 0.40 0.42 0.46 0.41 0.35 0.36 0.33 0.27 0.27 0.34 0.36 0.34
0.62 0.73 0.76 0.74 0.71 0.74 0.76 0.79 0.79 0.72 0.60 0.48 0.39 0.35 0.32 0.33 0.30 0.28 0.31 0.43 0.46 0.59 0.93 1.19 1.23 1.13 0.88 0.62 0.50 0.43 0.42 0.39 0.38 0.40 0.37 0.30 0.29 0.26 0.24 0.25 0.31 0.28 0.29
0.67 0.86 0.90 0.78 0.83 0.92 0.93 0.94 0.90 0.81 0.70 0.61 0.56 0.46 0.35 0.34 0.37 0.33 0.32 0.36 0.33 0.29 0.41 0.57 0.70 0.85 0.99 0.89 0.71 0.52 0.44 0.36 0.31 0.33 0.31 0.26 0.22 0.20 0.22 0.25 0.25 0.25 0.29
0.88 1.05 1.11 1.02 0.99 1.13 1.08 0.96 0.95 0.95 0.83 0.79 0.74 0.67 0.48 0.38 0.38 0.36 0.37 0.42 0.41 0.32 0.33 0.32 0.38 0.47 0.67 0.80 0.80 0.69 0.55 0.41 0.31 0.30 0.26 0.20 0.17 0.17 0.19 0.20 0.22 0.25 0.27
1.12 1.26 1.36 1.32 1.27 1.37 1.35 1.20 1.25 1.24 1.11 1.12 1.00 0.84 0.68 0.56 0.50 0.46 0.43 0.47 0.52 0.43 0.37 0.31 0.34 0.31 0.39 0.52 0.64 0.66 0.59 0.49 0.38 0.31 0.26 0.20 0.15 0.14 0.16 0.19 0.21 0.23 0.26
1.51 1.62 1.58 1.78 1.84 1.81 1.80 1.72 1.80 1.80 1.52 1.34 1.55 1.46 1.01 0.72 0.62 0.59 0.55 0.52 0.50 0.49 0.45 0.40 0.38 0.33 0.28 0.31 0.36 0.48 0.53 0.52 0.44 0.35 0.30 0.23 0.18 0.16 0.15 0.18 0.21 0.25 0.27
1.84 1.76 1.83 2.03 2.07 2.16 2.25 2.08 2.16 2.20 1.88 1.58 1.89 2.20 1.68 1.24 0.74 0.53 0.54 0.56 0.56 0.55 0.50 0.44 0.43 0.40 0.34 0.33 0.22 0.29 0.40 0.49 0.49 0.43 0.38 0.32 0.26 0.19 0.15 0.16 0.20 0.26 0.27
2.23 2.12 2.08 2.19 2.19 2.25 2.40 2.43 2.37 2.39 2.27 1.97 1.92 2.26 2.04 1.71 1.31 0.72 0.56 0.61 0.66 0.63 0.63 0.61 0.53 0.49 0.44 0.43 0.39 0.29 0.28 0.34 0.46 0.47 0.45 0.39 0.33 0.27 0.20 0.18 0.21 0.25 0.23
2.41 2.35 2.29 2.35 2.35 2.28 2.35 2.43 2.42 2.57 2.69 2.39 2.14 1.91 1.76 1.71 1.69 1.25 0.80 0.67 0.75 0.75 0.73 0.64 0.59 0.60 0.56 0.50 0.51 0.41 0.31 0.29 0.39 0.49 0.52 0.51 0.44 0.33 0.27 0.23 0.24 0.23 0.21
2.11 2.09 2.20 2.34 2.34 2.30 2.28 2.43 2.55 2.71 2.65 2.55 2.37 2.23 2.05 1.83 1.46 1.48 1.36 1.05 0.91 0.79 0.80 0.82 0.77 0.76 0.72 0.71 0.78 0.56 0.42 0.30 0.31 0.44 0.53 0.58 0.57 0.47 0.38 0.32 0.27 0.25 0.27
1.90 1.84 1.92 2.02 2.10 2.14 2.13 2.15 2.28 2.42 2.57 2.68 2.58 2.37 2.24 2.08 1.87 1.73 1.44 1.27 1.23 1.00 0.87 0.84 0.88 0.85 0.88 0.88 0.86 0.81 0.60 0.43 0.31 0.34 0.42 0.51 0.57 0.59 0.55 0.50 0.41 0.34 0.35
1.82 1.76 1.72 1.80 1.87 1.90 2.00 2.16 2.12 2.13 2.29 2.45 2.45 2.38 2.31 2.09 1.96 1.99 1.79 1.46 1.33 1.13 1.00 0.90 0.84 0.85 0.83 0.87 0.93 0.93 0.69 0.58 0.41 0.31 0.33 0.34 0.39 0.47 0.54 0.63 0.68 0.66 0.64
1.44 1.41 1.44 1.54 1.70 1.79 1.88 1.98 2.00 1.97 2.02 2.08 2.13 2.20 2.22 2.12 1.91 1.84 1.86 1.91 1.64 1.33 1.12 0.95 0.86 0.82 0.79 0.80 0.93 0.99 0.69 0.60 0.49 0.39 0.35 0.31 0.31 0.35 0.44 0.53 0.67 0.78 0.94
1.07 1.10 1.14 1.26 1.45 1.59 1.65 1.71 1.82 1.85 1.88 1.87 1.93 1.97 1.94 1.99 1.88 1.72 1.67 1.71 1.79 1.57 1.38 1.17 0.94 0.80 0.82 0.80 0.85 0.72 0.64 0.64 0.55 0.46 0.41 0.35 0.30 0.30 0.32 0.39 0.45 0.48 0.53
0.96 1.05 1.06 1.11 1.20 1.30 1.42 1.56 1.66 1.73 1.73 1.67 1.66 1.70 1.74 1.80 1.86 1.85 1.80 1.72 1.67 1.60 1.50 1.31 1.03 0.78 0.85 0.88 0.93 0.78 0.75 0.82 0.67 0.53 0.43 0.38 0.34 0.29 0.27 0.28 0.28 0.26 0.28
0.94 0.99 1.04 1.07 1.09 1.18 1.23 1.33 1.44 1.55 1.53 1.51 1.44 1.45 1.56 1.62 1.80 1.86 1.83 1.76 1.71 1.62 1.48 1.39 1.13 0.87 0.83 0.89 0.92 0.85 0.85 0.81 0.69 0.60 0.51 0.46 0.40 0.37 0.33 0.31 0.30 0.26 0.22
0.79 0.90 1.02 1.00 1.00 1.06 1.14 1.23 1.32 1.35 1.38 1.31 1.24 1.25 1.34 1.42 1.56 1.71 1.79 1.69 1.68 1.63 1.60 1.54 1.30 1.06 0.95 0.93 0.91 0.87 0.79 0.77 0.77 0.72 0.62 0.54 0.50 0.47 0.43 0.38 0.35 0.31 0.29
0.74 0.88 1.00 1.10 1.02 0.94 1.04 1.11 1.16 1.17 1.14 1.07 1.06 1.07 1.12 1.18 1.28 1.41 1.54 1.63 1.63 1.58 1.67 1.64 1.42 1.16 1.00 0.93 0.93 0.90 0.85 0.87 0.81 0.78 0.72 0.64 0.58 0.51 0.47 0.46 0.45 0.41 0.36
0.60 0.67 0.81 0.90 0.96 0.92 0.88 0.89 0.94 1.07 1.02 0.92 0.84 0.84 0.89 0.90 0.97 1.11 1.26 1.40 1.54 1.65 1.73 1.73 1.58 1.29 1.08 1.00 0.97 1.00 1.02 0.93 0.92 0.84 0.83 0.79 0.77 0.72 0.64 0.57 0.51 0.46 0.43
0.47 0.53 0.69 0.86 0.92 0.92 0.95 0.94 0.86 0.89 0.94 0.94 0.85 0.76 0.71 0.71 0.78 0.88 0.98 1.21 1.39 1.54 1.67 1.70 1.63 1.45 1.25 1.16 1.05 0.97 1.03 1.10 1.12 1.01 0.98 0.90 0.84 0.73 0.65 0.59 0.52 0.46 0.40
0.42 0.44 0.52 0.68 0.83 0.82 0.97 1.01 0.94 0.86 0.86 0.85 0.83 0.83 0.83 0.77 0.67 0.61 0.65 0.81 1.03 1.24 1.40 1.50 1.51 1.40 1.24 1.17 1.20 1.15 1.05 1.05 1.14 1.06 1.05 1.13 1.04 0.90 0.79 0.68 0.62 0.56 0.48
0.38 0.40 0.46 0.59 0.73 0.88 0.90 0.80 0.90 0.89 0.84 0.84 0.79 0.80 0.84 0.84 0.86 0.75 0.67 0.65 0.70 0.87 1.08 1.25 1.28 1.23 1.29 1.23 1.17 1.11 1.03 0.97 0.95 0.95 0.96 1.07 1.06 0.97 0.85 0.82 0.83 0.73 0.66
0.37 0.39 0.43 0.48 0.56 0.75 0.79 0.69 0.88 0.91 0.90 0.88 0.85 0.86 0.89 0.92 0.90 1.00 0.96 0.87 0.82 0.83 0.93 0.84 0.93 1.17 1.25 1.25 1.24 1.25 1.22 1.10 0.99 0.92 0.87 0.93 0.93 0.89 0.80 0.75 0.79 0.72 0.65
0.39 0.38 0.38 0.40 0.43 0.52 0.61 0.57 0.70 0.84 0.93 0.92 0.82 0.81 0.86 0.87 1.05 1.11 1.02 1.00 0.94 0.91 1.06 1.06 1.04 1.07 1.11 1.11 1.12 1.20 1.23 1.15 1.10 0.99 0.85 0.77 0.78 0.83 0.85 0.78 0.77 0.78 0.71
0.46 0.41 0.39 0.37 0.40 0.42 0.55 0.44 0.55 0.71 0.86 0.96 0.89 0.83 0.99 0.96 0.97 0.91 0.85 1.03 1.02 0.92 0.85 0.82 0.83 0.86 0.86 0.90 0.97 1.00 1.10 1.07 0.99 0.99 0.85 0.75 0.74 0.78 0.81 0.76 0.69 0.67 0.68